Regional Weather Roundup
Issued by NWS Charleston, SC

Home | Current Version | Previous Version | Text Only | Print | Product List | Glossary On
Versions: 1 2 3 4 5 6 7 8 9 10 11 12 13 14 15 16 17 18 19 20 21 22 23 24 25 26 27 28 29 30 31 32 33 34 35 36 37 38 39 40 41 42 43 44 45 46 47 48 49 50
000
ASUS42 KCHS 181427
RWRCHS

REGIONAL WEATHER ROUNDUP
NATIONAL WEATHER SERVICE CHARLESTON SC
1000 AM EDT FRI AUG 18 2017

NOTE: "FAIR" INDICATES FEW OR NO CLOUDS BELOW 12,000 FEET WITH NO
SIGNIFICANT WEATHER AND/OR OBSTRUCTIONS TO VISIBILITY.

NOT ALL STATIONS ARE QUALITY CONTROLLED. USE DATA WITH CAUTION...
ESPECIALLY DEWPOINT OBSERVATIONS.

SCZ027-030-031-034>040-042>050-181500-
...SOUTHEAST SOUTH CAROLINA...

CITY           SKY/WX    TMP DP  RH WIND       PRES   REMARKS
N CHARLESTON   MOSUNNY   88  77  69 NW9       29.99R HX 100
WATERFRONT PRK   N/A     85  78  79 W5        29.84R HX  97
JOHNS ISLAND   FAIR      90  79  70 W8        30.00R HX 105
PINOPOLIS        N/A     84  79  84 W7        29.92R HX  96
MONCKS CORNER  FAIR      86  75  70 NW3       29.99S HX  95
SUMMERVILLE    FAIR      86  77  74 NW5       30.00S HX  97
BEAUFORT MCAS  SUNNY     88  77  69 NW6       30.01R HX 100
BEAUFORT ARPT  FAIR      88  75  66 NW9       30.00S HX  97
HILTON HEAD IS NOT AVBL
WALTERBORO     SUNNY     88  75  66 NW6       30.00F HX  97
ALLENDALE      NOT AVBL

...SOUTHERN MIDLANDS AND PEE DEE...

CITY           SKY/WX    TMP DP  RH WIND       PRES   REMARKS
GEORGETOWN     FAIR      86  79  79 W8        29.99S HX  99
KINGSTREE      FAIR      86  75  70 SW5       29.98S HX  95
ORANGEBURG     SUNNY     87  73  62 NW5       29.99S HX  94
BARNWELL       FAIR      90  75  62 VRB7      29.99S HX 100
AIKEN          FAIR      86  73  66 W8        30.03S HX  93
MANNING        FAIR      86  73  66 CALM      29.99R HX  93
COLUMBIA       MOSUNNY   90  73  57 NW10      29.96F HX  98
SUMTER         SUNNY     87  74  64 W10       29.94F HX  95
FLORENCE       SUNNY     87  76  69 W9        29.96F HX  97
MYRTLE BEACH   SUNNY     86  79  79 W9        29.99R HX  99
N MYRTLE BEACH SUNNY     86  78  77 SW5       29.98R HX  98

$$

GAZ063-065-086>088-099>101-113>116-118-119-134>141-150-181500-
...SOUTHEAST GEORGIA...

CITY           SKY/WX    TMP DP  RH WIND       PRES   REMARKS
SAVANNAH ARPT  MOSUNNY   88  75  65 NW8       30.01R HX  97
HUNTER AAF     SUNNY     88  75  67 NW9       29.99R HX  97
FORT STEWART   SUNNY     88  74  64 NW6       29.99S HX  97
STATESBORO     SUNNY     88  71  55 NW6       30.01F HX  93
SYLVANIA       SUNNY     88  77  69 NW8       30.01F HX 100
CLAXTON        FAIR      89  75  63 W6        30.01S HX  99

...CSRA...CENTRAL AND FAR SOUTHEAST GEORGIA...

CITY           SKY/WX    TMP DP  RH WIND       PRES   REMARKS
THOMSON        SUNNY     86  74  66 NW8       30.05S HX  94
AUGUSTA-BUSH   SUNNY     90  74  59 W9        29.98F HX  99
AUGUSTA-DANIEL SUNNY     88  71  57 W10       30.00F HX  94
SWAINSBORO     FAIR      86  73  66 W5        30.02S HX  93
VIDALIA        SUNNY     88  73  62 NW10      30.02S HX  96
EASTMAN        FAIR      89  63  41 NW8       30.04S
HAZLEHURST     FAIR      90  64  42 NW3       30.01F HX  91
ALMA           SUNNY     89  73  59 NW9       30.02S HX  97
WAYCROSS       SUNNY     88  73  60 N7        30.02S HX  95
JESUP          FAIR      90  72  55 N7        30.02S HX  96
BAXLEY         FAIR      86  72  62 NW9       30.02S HX  92
BRUNSWICK      MOSUNNY   88  73  62 NW6       30.03R HX  96
SAINT SIMONS   PTSUNNY   86  76  71 NW8       30.01S HX  96

$$

SCZ027-028-034-036>038-045-046-048>050-GAZ119-141-181500-
...LAKE AND SUPPLEMENTAL COASTAL OBSERVATIONS...

STATION/POSITION TIME  TEMP    WIND        PRES    WAVE   SWELL
                       AIR SEA DIR/SP/G            HT/PER HT/PER/DIR
                 (UTC) (F)     (DEG/KT/KT) (MB)    (FT/S) (FT/S/D)
WINYAH BAY       1345   85     280/  8     1015.0S
LAKE MURRAY      1420   86     260/ 10/ 13 1013.5
ACE BASIN NERRS  1345   86     270/  3     1016.0R
FORT PULASKI     1400   85 86  320/ 11/ 14 1016.4
SAPELO ISLAND    1400   88     330/  5     1016.0

$$

ANZ835-935-AMZ111-154-330-350-352-354-370-450-454-472-181500-
...C-MAN AND BUOY OBSERVATIONS...

STATION/POSITION TIME  TEMP    WIND        PRES    WAVE   SWELL
                       AIR SEA DIR/SP/G            HT/PER HT/PER/DIR
                 (UTC) (F)     (DEG/KT/KT) (MB)    (FT/S) (FT/S/D)
BUOY 41004       1410   84 85  230/ 12/ 14 1015.7
BUOY 41008       1350   83 85  250/  2/  4 1016.3R   1/ 4   2/150/ 4
FOLLY BEACH CMAN 1400   85     260/  4/  6 1016.4R
CAPERS NEARSHORE 1408   84 85  280/  6/ 10 1015.7R
FRIPP NEARSHORE  1408   86     310/  8/ 10 1015.7R


STATION/POSITION TIME  TEMP    WIND        PRES    WAVE   SWELL
                       AIR SEA DIR/SP/G            HT/PER HT/PER/DIR
                 (UTC) (F)     (DEG/KT/KT) (MB)    (FT/S) (FT/S/D)
5E ST. MARYS GA  1330      84                N/A     1/ 9
FRYING PAN BUOY  1410   84 84  230/ 12/ 14 1015.4
BUOY 41025       1350   84 86  210/ 12/ 14 1014.8R   2/ 8   2/ 70/ 8
CAPE LOOKOUT NC  1400   85     210/  9/ 12 1014.4S
BUOY 41002       1350   84 84  220/  8/ 10 1016.9R   3/ 5   2/210/ 5
BUOY 41010       1410   85 85  200/  6/  8 1017.6
ST AUGUSTINE FL  1400   82 81  130/  5/  6 1017.4R


$$



USA.gov is the U.S. government's official web portal to all federal, state and local government web resources and services.